STARLINK-30153 (57510 NORAD) Tracking and Keplerian Element Data

This shows tracking and keplerian element data for the satellite.

Feedback or suggestion? Click here.




ElementValue
Catalog57510
NameSTARLINK-30153
Epoch Orbit427
Epoch Day238.91667824
Epoch Year2023
RAAN12.1826
Inclination43.0005
Eccentricity9.22E-05
Argument of Perigee214.8306
Mean Anonmoly296.3699
Mean Motion15.51292951
Decay Rate-0.01684734
L11 57510U 23113R 23238.91667824 -.01684734 00000+0 -31302-1 0 9993
L22 57510 43.0005 12.1826 0000922 214.8306 296.3699 15.51292951 4276



Live tracking and technical data element details for STARLINK-30153 (NORAD 57510). STARLINK-30153 can be tracked NOW for your location showing map with azimuth and elevation plus other details from your city location.







IsCatalogInMostPopularTable: catalog: 57510, numindb: 6
Update: records affected: 1



GetName: 57510 STARLINK-30153

Hit Count: updated at: Tue, 26 Sep 2023 12:31:30 GMT